Dewpoint
54 55 56 57 56 56 56 55 55 55 53 53 53 52 53 55 54 50 47 47 49 55 56 53 52 48 46 45 47 46 36 30 30 31 30 34 33 33 31 30 29 29 32 37 46
49 52 53 55 55 56 56 56 56 55 53 52 53 52 55 56 49 47 48 52 53 57 52 50 48 46 43 43 45 43 37 33 35 35 34 34 34 31 31 29 28 28 31 42 42
48 47 49 50 52 54 54 56 55 55 54 51 53 52 55 55 46 41 52 53 55 58 52 50 48 44 42 43 42 42 39 37 39 37 36 35 34 31 31 30 31 30 32 40 40
47 47 47 47 48 51 53 54 56 55 54 53 53 52 55 50 27 43 55 55 56 55 48 48 46 43 41 41 42 41 41 40 39 37 35 35 34 32 31 33 31 31 34 39 39
51 49 49 47 47 47 50 52 53 55 55 53 53 52 53 45 42 45 55 56 57 53 47 46 45 42 40 40 42 41 40 41 40 37 35 35 34 33 32 32 29 30 35 37 37
48 49 51 50 48 47 47 49 51 52 55 54 53 52 49 40 42 45 55 55 52 52 48 45 44 43 39 40 39 40 40 39 40 38 36 34 34 33 34 32 28 30 34 35 35
47 46 46 47 49 50 47 47 49 50 53 54 53 51 45 40 44 44 53 53 52 50 44 44 43 41 39 38 41 39 38 40 38 38 38 36 35 34 35 31 29 29 32 33 33
45 45 47 46 47 48 49 49 48 49 51 52 54 49 42 44 46 46 49 47 48 47 40 42 40 41 38 34 35 37 37 33 35 38 37 36 32 33 36 31 30 29 30 32 32
46 46 47 47 47 48 48 48 48 48 48 50 49 46 38 45 45 44 46 46 44 40 37 35 38 38 33 33 31 33 27 30 31 35 37 36 33 33 30 32 33 31 28 30 31
45 46 47 47 46 46 47 46 46 47 45 47 47 43 40 39 41 44 45 37 35 35 32 33 32 35 33 32 26 26 29 30 30 30 35 34 34 29 20 28 31 32 29 27 28
45 44 45 45 45 45 43 41 35 37 41 30 38 35 36 39 38 40 40 34 32 33 32 32 33 32 32 32 31 28 28 28 27 29 30 32 32 32 32 19 23 28 30 27 27
42 43 43 44 44 45 43 39 38 41 35 38 33 39 39 40 35 36 37 33 32 31 33 28 29 30 33 33 32 27 26 25 20 19 24 24 24 26 29 31 25 20 25 28 27
41 42 43 44 44 42 38 35 37 43 33 33 33 36 35 41 37 34 34 34 30 31 30 28 27 29 32 31 30 29 24 22 15 15 19 20 15 17 19 23 28 29 22 26 29
41 42 43 43 41 39 37 41 44 43 27 28 26 31 36 38 35 36 34 32 29 28 28 29 27 25 30 30 30 27 29 29 24 23 18 14 11 15 15 18 22 24 24 22 27
42 42 43 43 41 37 36 40 41 39 14 18 24 31 29 32 25 33 34 31 29 27 25 25 24 24 24 28 30 27 29 28 27 24 18 16 13 13 12 11 16 21 23 23 25
42 43 44 42 42 38 39 41 37 23 14 21 26 28 30 28 27 32 32 33 32 26 25 23 23 23 23 24 29 24 23 22 21 22 21 20 13 13 13 12 11 15 20 23 23
42 43 43 42 35 40 41 38 23 16 24 21 24 28 25 27 28 28 31 31 28 26 25 24 19 21 20 20 25 24 22 18 19 19 19 12 13 13 14 11 11 12 15 21 23
43 44 42 40 40 41 39 29 16 20 19 23 25 27 25 27 26 26 27 28 29 25 20 21 18 17 19 17 19 22 19 17 12 15 12 11 10 11 13 12 13 13 14 18 22
43 41 40 40 42 41 34 21 20 20 27 24 24 19 21 26 25 27 24 25 28 25 18 20 16 18 18 17 18 17 16 18 15 13 12 12 12 13 14 13 12 12 15 16 22
39 38 36 40 43 38 29 20 23 30 31 28 24 23 12 21 23 23 22 22 23 26 24 20 18 15 15 15 16 15 15 14 20 14 11 12 11 9 10 12 12 12 16 17 21
38 32 34 43 41 33 23 23 27 27 29 24 23 24 22 20 23 26 24 25 25 26 25 23 20 14 15 15 16 16 15 17 21 19 11 7 8 13 14 13 13 12 16 17 19
34 27 38 43 29 30 25 26 26 23 27 27 29 23 22 27 28 24 25 22 28 28 25 29 28 15 15 17 17 17 19 18 16 18 18 15 10 13 12 11 13 13 16 18 19
32 31 36 37 22 23 25 26 27 24 24 27 28 31 30 24 23 26 25 29 30 27 26 31 26 19 14 16 17 15 16 21 21 19 17 12 9 12 10 12 14 15 16 18 19
32 25 29 33 31 27 24 23 24 27 27 29 29 31 31 29 29 27 27 32 32 30 31 29 27 22 17 16 21 15 18 16 17 16 13 13 12 13 11 12 15 16 17 18 18
32 26 27 23 25 26 26 26 22 23 29 29 28 27 27 26 29 27 28 32 34 34 33 31 25 25 22 16 18 17 16 17 16 17 15 12 12 12 13 11 15 17 17 17 17
31 28 32 28 27 26 28 26 22 22 24 24 27 28 28 26 23 28 28 30 29 34 32 32 26 25 22 18 15 14 16 17 16 15 15 13 13 14 12 11 15 16 17 17 17
36 36 32 26 26 25 28 28 28 30 26 24 27 28 29 28 30 33 33 32 32 31 30 29 28 25 20 20 18 17 14 15 16 16 16 15 15 15 13 10 14 16 17 17 17
Wind_Speed
20 21 21 18 15 13 13 12 11 11 12 13 13 14 10 12 11 10 16 9 10 10 13 11 11 10 10 11 6 3 11 16 14 12 6 11 11 4 2 10 5 6 2 4 26
19 19 22 22 21 19 15 14 12 10 13 13 12 14 13 8 11 20 15 11 13 15 16 18 16 15 10 11 8 15 17 15 4 7 4 10 11 12 9 11 8 9 5 20 25
19 20 20 22 22 22 21 17 13 10 10 13 12 14 14 8 8 5 6 18 17 15 13 13 14 14 14 11 13 14 19 14 4 4 2 6 8 8 9 13 14 18 19 26 26
17 18 18 18 20 20 19 20 17 13 10 10 10 12 13 3 5 2 1 22 20 14 15 15 15 15 13 15 18 10 19 5 4 4 4 5 4 7 14 4 3 9 23 29 29
23 21 20 18 19 20 19 19 19 16 12 8 8 10 5 6 10 6 5 18 18 17 16 18 18 17 17 16 10 20 8 13 11 5 4 3 8 8 12 8 2 12 22 27 26
25 22 23 22 21 19 20 19 19 19 15 10 7 6 6 13 2 5 9 15 13 16 15 15 13 13 12 8 19 7 21 12 8 10 5 7 7 3 8 9 9 17 22 25 26
23 23 23 23 22 22 18 19 19 19 18 14 10 8 13 19 3 3 5 14 14 14 13 15 7 15 8 9 7 13 4 10 15 10 11 7 16 20 9 11 13 16 19 22 24
24 25 24 23 23 22 22 20 19 20 20 16 13 10 11 7 16 15 7 5 8 9 6 12 7 13 6 5 6 13 11 18 5 17 8 10 18 9 20 16 18 18 19 21 24
24 24 24 24 23 23 22 21 20 21 20 15 10 9 15 3 11 20 16 11 11 8 7 6 9 9 7 12 9 12 11 21 10 12 11 19 14 6 6 19 23 20 20 21 22
24 23 24 25 24 22 22 20 19 20 13 10 12 9 11 9 7 9 18 15 8 13 9 10 8 12 13 18 17 17 18 10 19 9 17 16 25 9 7 15 20 23 21 22 23
24 23 23 24 22 19 15 8 9 8 17 19 12 18 0 9 5 8 18 17 12 17 16 19 19 24 26 28 19 7 15 12 9 5 9 22 26 24 19 11 17 21 24 23 24
25 23 25 25 22 18 11 5 11 1 12 21 29 23 12 2 5 8 19 17 19 21 17 9 27 23 23 23 23 12 12 11 3 3 9 12 21 22 24 27 23 20 23 24 24
25 24 25 24 21 15 15 21 12 7 8 12 25 23 28 17 18 14 24 22 22 24 27 25 6 23 19 20 24 24 20 9 0 3 8 9 20 23 23 29 27 29 22 25 27
27 25 24 21 14 7 7 5 3 7 8 7 14 13 19 15 14 22 25 19 9 25 20 19 16 13 24 24 23 26 22 17 12 5 8 2 9 7 12 16 29 29 30 26 28
27 25 21 13 10 11 13 8 5 4 9 8 11 5 20 26 11 22 27 11 17 15 10 12 17 22 21 24 25 19 14 19 15 11 8 11 8 7 5 13 25 28 30 29 29
25 21 17 10 5 10 9 4 2 4 8 5 8 15 15 33 29 9 23 18 11 12 6 8 1 14 11 11 21 12 12 9 6 9 14 20 15 12 13 12 10 22 26 28 28
22 18 13 7 7 5 2 2 6 8 4 6 7 9 22 19 27 19 25 29 18 12 14 11 7 6 8 10 13 19 22 8 8 10 13 1 16 22 11 6 4 4 18 27 27
20 16 9 10 7 8 2 4 8 5 9 3 3 8 16 13 21 19 21 27 30 26 18 18 13 15 12 14 14 25 26 8 9 9 9 5 12 10 9 2 8 5 6 21 25
12 4 4 3 4 6 4 9 4 6 0 2 8 9 10 15 11 14 25 30 27 26 16 18 17 13 16 7 21 18 25 5 2 3 4 8 7 18 17 14 7 9 8 18 24
6 5 4 7 5 6 4 7 6 3 3 4 6 5 15 17 13 21 20 19 29 29 18 7 6 6 4 6 7 12 18 14 6 9 8 6 6 12 2 9 10 10 10 14 19
2 6 4 3 4 3 4 5 5 10 7 5 5 7 3 3 13 12 14 5 28 26 25 9 5 6 9 18 21 8 15 7 5 3 9 10 6 1 2 2 12 13 10 14 18
3 4 6 5 3 3 5 4 3 10 7 6 4 7 11 3 7 15 15 11 15 16 22 9 2 10 18 2 2 18 14 21 14 11 3 2 3 2 3 3 7 11 11 11 13
2 3 3 2 3 4 6 10 6 6 7 3 4 8 4 9 5 7 11 5 8 17 21 16 6 10 7 4 3 12 16 19 10 1 15 19 7 1 1 4 7 13 13 13 14
1 3 2 1 2 6 8 7 5 5 7 4 5 2 5 6 4 4 5 3 8 8 11 18 7 9 19 18 12 14 16 10 20 21 16 17 15 8 3 8 9 12 13 15 16
2 1 3 4 3 9 11 6 12 5 4 4 4 9 3 2 4 4 4 4 4 8 13 10 10 17 17 5 10 12 23 26 24 29 27 20 17 17 3 10 11 13 16 18 18
0 2 2 8 10 11 12 2 8 12 4 4 7 2 1 6 4 6 6 9 6 11 10 9 8 18 22 6 11 13 21 26 32 31 32 23 22 12 2 9 14 17 19 20 21
1 2 3 4 6 10 4 5 6 2 6 10 7 4 3 9 7 4 9 7 5 11 15 9 8 11 22 14 6 13 25 28 30 31 30 31 25 9 10 13 19 21 21 22 24
Wind_Direction
337 345 347 332 316 313 314 312 309 320 327 327 329 318 310 304 301 255 250 246 199 218 168 164 173 168 174 187 200 200 226 230 230 213 204 164 172 162 144 144 167 162 171 127 149
326 329 332 337 337 331 308 306 303 308 319 322 328 321 316 320 291 269 237 223 217 180 172 175 177 172 183 194 193 204 223 231 252 222 201 179 201 164 175 166 188 170 121 145 154
330 323 320 320 326 332 330 315 306 306 314 317 325 323 320 310 301 249 182 204 197 173 179 185 175 180 195 188 195 210 230 225 242 214 230 186 198 181 197 200 200 195 161 161 165
321 320 320 317 312 316 323 329 313 300 301 310 321 324 321 282 281 27 321 182 188 179 163 172 177 187 202 201 198 218 228 214 224 189 187 206 168 207 209 198 227 190 168 165 172
319 312 309 316 317 311 313 321 323 309 291 295 312 321 303 246 255 313 252 183 181 177 184 177 186 197 204 207 196 220 210 221 230 193 204 185 218 230 224 210 136 156 166 174 177
321 325 320 313 309 310 307 306 311 316 295 281 287 303 240 254 295 302 190 156 174 185 193 194 198 200 214 215 210 205 230 229 218 212 205 213 220 212 223 178 157 167 176 181 182
316 316 314 315 319 308 300 307 303 304 309 273 273 266 248 241 159 12 213 200 184 197 194 204 202 184 180 214 225 208 189 221 229 213 223 214 242 232 221 188 191 188 185 185 187
313 313 316 316 312 305 306 294 300 297 298 280 264 251 253 244 242 239 212 205 190 202 216 197 193 203 206 138 159 207 231 231 183 207 201 192 249 234 214 199 199 197 191 189 191
321 315 315 308 305 302 298 298 288 290 286 275 259 214 260 119 220 226 192 200 182 189 198 174 187 197 175 191 191 196 234 220 221 203 194 206 250 244 214 213 217 206 199 196 193
318 321 314 309 314 307 297 305 283 278 264 244 242 219 237 223 194 185 189 173 167 171 159 182 189 193 199 195 207 208 217 221 219 193 202 210 237 221 198 213 222 215 209 202 197
316 317 311 312 314 324 325 315 280 245 225 209 200 211 346 194 149 185 171 168 170 183 188 192 199 205 200 207 221 265 214 223 204 190 208 230 244 241 226 212 221 221 216 209 203
316 313 308 308 313 320 299 252 254 287 297 236 244 234 220 69 184 183 176 174 184 194 188 186 218 214 216 212 221 214 205 213 202 181 219 250 258 250 239 233 223 218 216 211 205
310 311 304 306 310 292 256 259 267 240 241 255 233 230 227 222 236 202 188 196 196 198 197 206 199 217 209 202 209 218 216 178 328 176 235 288 276 239 236 230 227 227 217 213 205
309 306 301 307 294 287 261 282 354 241 249 216 218 230 197 212 237 215 194 183 189 206 203 224 210 193 207 213 206 222 220 236 225 270 259 277 278 245 216 222 222 218 212 208 205
311 306 300 293 287 279 278 296 351 5 250 157 196 170 197 193 172 197 186 195 187 168 188 197 199 201 202 209 202 219 207 214 224 237 273 230 259 242 184 229 225 219 211 205 200
321 312 302 292 237 268 275 269 358 217 263 156 168 188 185 205 211 142 182 193 203 182 203 220 175 207 208 200 200 143 135 140 183 220 250 235 223 251 225 230 227 217 212 203 196
321 310 302 269 261 229 205 112 244 219 330 195 202 191 198 194 205 194 189 194 185 181 195 197 205 168 165 151 169 183 170 152 188 203 236 228 211 243 225 200 205 199 213 204 194
317 313 277 255 256 225 142 185 250 259 198 203 283 201 191 182 196 202 197 201 207 205 203 202 211 181 183 201 179 191 189 184 191 197 205 180 230 248 247 247 229 191 191 198 192
324 304 277 340 248 185 183 243 261 274 81 280 290 237 195 186 159 182 211 207 201 205 201 202 216 177 181 159 160 189 216 236 93 83 187 198 252 281 247 239 189 191 169 185 191
316 302 304 335 172 150 241 259 247 253 165 122 260 265 222 196 181 192 194 213 208 204 216 194 185 193 158 149 196 200 173 194 237 197 220 200 245 240 187 214 190 188 180 174 184
342 316 23 346 157 158 241 267 276 251 239 223 237 260 298 257 191 204 206 188 198 200 200 194 224 159 163 206 189 168 196 211 227 256 229 224 218 156 254 252 196 183 174 168 177
357 298 8 339 284 238 248 217 254 269 237 249 288 255 253 212 198 198 204 215 197 180 197 181 198 195 199 88 326 223 215 201 211 211 206 296 209 167 270 262 193 167 160 155 165
338 277 7 304 270 265 272 259 255 261 252 210 250 238 241 229 199 188 240 182 169 181 165 161 178 168 177 225 212 216 206 209 210 171 206 214 199 124 292 140 143 154 154 152 151
38 320 314 63 290 293 305 300 252 234 243 218 249 200 219 218 122 182 195 82 179 201 158 163 169 207 207 211 165 204 211 220 214 222 213 223 237 231 194 156 150 150 152 152 154
32 331 324 305 303 294 295 273 279 259 223 196 257 240 177 334 147 186 161 126 156 185 174 157 217 221 238 245 202 220 199 197 206 219 223 224 227 240 170 183 170 159 151 152 154
325 295 276 289 297 291 284 245 265 250 265 244 239 292 192 215 206 167 167 242 196 195 173 184 256 211 219 218 210 230 222 206 215 219 224 229 233 235 114 148 164 167 163 161 161
85 287 296 293 308 313 352 328 292 212 258 235 246 256 251 253 250 252 234 224 186 185 197 178 200 196 220 189 207 250 225 214 223 224 219 220 223 190 203 194 185 176 172 167 163